CW2414 Weather Reports


time (UTC)temp
C
wind
direction
speed
KPH
gust
KPH
rain 1hr
cm
rain 24hr
cm
rain mn
cm
humidity
%
barometer
mb
20260504231510 12 279 1.6 11.3 0.00 0.03 0.00 71 1005.6
20260504230008 12 257 3.2 12.9 0.00 0.03 0.00 69 1005.5
20260504224608 13 265 1.6 12.9 0.00 0.08 0.00 68 1005.2
20260504223007 13 280 1.6 12.9 0.00 0.08 0.00 66 1005.1
20260504221508 13 259 8.0 17.7 0.00 0.08 0.00 65 1004.9
20260504220005 13 5 3.2 14.5 0.00 0.08 0.00 65 1004.6
20260504214507 13 269 6.4 25.7 0.00 0.15 0.00 63 1004.5
20260504213004 14 243 8.0 20.9 0.00 0.15 0.00 62 1004.3
20260504211506 14 295 6.4 17.7 0.00 0.15 0.00 62 1004.2
20260504210003 14 264 1.6 17.7 0.00 0.15 0.00 62 1004.2
20260504204502 14 280 8.0 17.7 0.00 0.15 0.00 61 1003.9
20260504203002 14 258 11.3 24.1 0.00 0.15 0.00 61 1004.1
20260504201501 14 238 9.7 25.7 0.00 0.15 0.00 60 1004.2
20260504200002 14 211 14.5 24.1 0.00 0.15 0.00 62 1004.0
20260504194606 13 258 9.7 19.3 0.00 0.23 0.00 65 1004.0
20260504193109 13 209 9.7 25.7 0.00 0.23 0.00 68 1004.0
20260504191613 12 213 9.7 22.5 0.00 0.23 0.00 71 1004.2
20260504184557 11 285 8.0 19.3 0.00 0.46 0.00 75 1004.7
20260504183057 11 215 4.8 16.1 0.00 0.46 0.00 75 1004.6
20260504181559 12 236 8.0 29.0 0.00 0.46 0.00 66 1004.6
20260504180055 13 242 14.5 29.0 0.00 0.46 0.00 58 1004.3
20260504174554 13 230 8.0 25.7 0.00 0.79 0.00 52 1003.6
20260504173053 15 202 11.3 22.5 0.00 0.79 0.00 44 1003.2
20260504171554 15 207 12.9 22.5 0.00 0.79 0.00 41 1003.1
20260504120105 6 238 11.3 19.3 0.00 1.40 0.00 67 1006.4
20260504081524 3 241 3.2 19.3 0.00 1.93 0.00 86 1003.6
20260504044602 5 330 4.8 19.3 0.00 2.18 0.00 92 1001.9
20260504043052 5 301 6.4 20.9 0.00 2.18 0.00 93 1001.8
20260504041545 5 313 6.4 17.7 0.00 2.18 0.00 93 1001.7
20260504040045 6 247 3.2 17.7 0.00 2.18 0.00 93 1001.5
20260504034543 6 288 3.2 20.9 0.00 2.18 2.18 93 1001.5
20260504033041 6 286 9.7 20.9 0.00 2.18 2.18 94 1001.3
20260504031542 5 252 4.8 14.5 0.00 2.18 2.18 94 1001.1
20260504030040 5 280 6.4 14.5 0.00 2.18 2.18 94 1000.9
20260504024539 5 327 6.4 16.1 0.00 2.18 2.18 94 1000.9
20260504023038 5 251 3.2 16.1 0.00 2.18 2.18 94 1000.7
20260504021539 5 289 9.7 19.3 0.03 2.18 2.18 94 1000.6
20260504020037 5 320 6.4 22.5 0.03 2.18 2.18 94 1000.8
20260504014540 5 324 6.4 22.5 0.03 2.18 2.18 94 1000.7
20260504013047 5 273 8.0 19.3 0.03 2.18 2.18 94 1000.6
20260504011537 5 343 1.6 16.1 0.00 2.16 2.16 94 1000.5
20260504010036 5 319 6.4 19.3 0.00 2.16 2.16 95 1000.1
20260504004533 5 289 4.8 14.5 0.00 2.16 2.16 95 1000.0
20260504003035 5 286 4.8 17.7 0.00 2.16 2.16 95 999.9
20260504001537 5 330 6.4 24.1 0.00 2.16 2.16 95 999.7
20260504000030 5 279 4.8 20.9 0.00 2.16 2.16 95 999.5
20260503234529 5 269 4.8 20.9 0.00 2.16 2.16 95 999.5
20260503233028 5 215 1.6 14.5 0.03 2.16 2.16 95 999.3